TimeEDT,TemperatureF,Dew PointF,Humidity,Sea Level PressureIn,VisibilityMPH,Wind Direction,Wind SpeedMPH,Gust SpeedMPH,PrecipitationIn,Events,Conditions,WindDirDegrees,DateUTC
12:54 AM,36.0,23.0,59,29.99,10.0,Calm,Calm,-,N/A,,Clear,0,2013-03-23 04:54:00
1:54 AM,35.1,23.0,61,30.00,10.0,NNW,5.8,-,N/A,,Clear,340,2013-03-23 05:54:00
2:54 AM,30.9,21.9,69,29.99,10.0,Calm,Calm,-,N/A,,Clear,0,2013-03-23 06:54:00
3:54 AM,33.1,21.9,64,29.99,10.0,Calm,Calm,-,N/A,,Clear,0,2013-03-23 07:54:00
4:54 AM,32.0,24.1,73,30.00,10.0,North,3.5,-,N/A,,Clear,360,2013-03-23 08:54:00
5:54 AM,30.9,24.1,76,30.01,10.0,Calm,Calm,-,N/A,,Clear,0,2013-03-23 09:54:00
6:54 AM,30.0,25.0,82,30.02,10.0,NE,3.5,-,N/A,,Clear,40,2013-03-23 10:54:00
7:54 AM,34.0,27.0,75,30.04,10.0,North,3.5,-,N/A,,Clear,10,2013-03-23 11:54:00
8:54 AM,44.1,28.9,55,30.04,10.0,ENE,6.9,-,N/A,,Mostly Cloudy,60,2013-03-23 12:54:00
9:54 AM,46.0,26.1,46,30.06,10.0,ESE,3.5,-,N/A,,Overcast,110,2013-03-23 13:54:00
10:54 AM,46.9,23.0,39,30.05,10.0,Variable,3.5,-,N/A,,Overcast,0,2013-03-23 14:54:00
11:54 AM,50.0,21.9,33,30.03,10.0,Calm,Calm,-,N/A,,Mostly Cloudy,0,2013-03-23 15:54:00
12:54 PM,51.1,25.0,36,30.01,10.0,SW,12.7,-,N/A,,Clear,230,2013-03-23 16:54:00
1:54 PM,52.0,23.0,32,29.99,10.0,SW,9.2,-,N/A,,Clear,220,2013-03-23 17:54:00
2:54 PM,55.0,23.0,29,29.96,10.0,WSW,9.2,16.1,N/A,,Clear,240,2013-03-23 18:54:00
3:54 PM,57.0,21.9,26,29.94,10.0,WSW,8.1,-,N/A,,Clear,250,2013-03-23 19:54:00
4:54 PM,57.0,19.9,24,29.93,10.0,West,9.2,-,N/A,,Clear,260,2013-03-23 20:54:00
5:54 PM,57.0,18.0,22,29.92,10.0,West,8.1,-,N/A,,Clear,260,2013-03-23 21:54:00
6:54 PM,55.0,17.1,23,29.91,10.0,NW,5.8,-,N/A,,Clear,310,2013-03-23 22:54:00
7:54 PM,50.0,21.0,32,29.92,10.0,North,3.5,-,N/A,,Clear,350,2013-03-23 23:54:00
8:54 PM,43.0,25.0,49,29.94,10.0,ENE,4.6,-,N/A,,Clear,70,2013-03-24 00:54:00
9:54 PM,41.0,26.1,55,29.97,10.0,ENE,5.8,-,N/A,,Clear,60,2013-03-24 01:54:00
10:54 PM,39.0,30.0,70,29.99,10.0,Calm,Calm,-,N/A,,Clear,0,2013-03-24 02:54:00
11:54 PM,37.9,30.0,73,29.98,10.0,Calm,Calm,-,N/A,,Clear,0,2013-03-24 03:54:00